| time (UTC) | temp F | wind direction | speed MPH | gust MPH | rain 1hr in | rain 24hr in | rain mn in | humidity % | barometer mb |
| 20260510092218 | 62 | 30 | 4.0 | 9.0 | 0.00 | 0.00 | 0.00 | 75 | 1008.7 |
| 20260510091716 | 62 | 38 | 4.0 | 9.0 | 0.00 | 0.00 | 0.00 | 75 | 1008.5 |
| 20260510091218 | 63 | 32 | 4.0 | 9.0 | 0.00 | 0.00 | 0.00 | 74 | 1008.4 |
| 20260510091214 | 63 | 25 | 4.0 | 8.0 | 0.00 | 0.00 | 0.00 | 74 | 1008.5 |
| 20260510090211 | 63 | 51 | 5.0 | 10.0 | 0.00 | 0.00 | 0.00 | 75 | 1008.4 |
| 20260510085713 | 63 | 44 | 5.0 | 10.0 | 0.00 | 0.00 | 0.00 | 75 | 1008.2 |
| 20260510085441 | 63 | 18 | 5.0 | 9.0 | 0.00 | 0.00 | 0.00 | 75 | 1008.2 |
| 20260510084710 | 63 | 31 | 4.0 | 8.0 | 0.00 | 0.00 | 0.00 | 74 | 1008.2 |
| 20260510084209 | 63 | 43 | 5.0 | 8.0 | 0.00 | 0.00 | 0.00 | 73 | 1008.3 |
| 20260510083931 | 64 | 68 | 4.0 | 7.0 | 0.00 | 0.00 | 0.00 | 72 | 1008.5 |
| 20260510083200 | 65 | 15 | 4.0 | 8.0 | 0.00 | 0.00 | 0.00 | 72 | 1008.4 |
| 20260510082930 | 65 | 39 | 5.0 | 8.0 | 0.00 | 0.00 | 0.00 | 72 | 1008.6 |
| 20260510082158 | 65 | 23 | 5.0 | 10.0 | 0.00 | 0.00 | 0.00 | 71 | 1008.4 |
| 20260510081659 | 65 | 73 | 5.0 | 10.0 | 0.00 | 0.00 | 0.00 | 71 | 1008.3 |
| 20260510081155 | 66 | 92 | 7.0 | 14.0 | 0.00 | 0.00 | 0.00 | 71 | 1008.6 |
| 20260510080654 | 66 | 84 | 7.0 | 14.0 | 0.00 | 0.00 | 0.00 | 71 | 1008.6 |
| 20260510080151 | 66 | 56 | 9.0 | 18.0 | 0.00 | 0.00 | 0.00 | 70 | 1008.5 |
| 20260510075653 | 66 | 51 | 11.0 | 18.0 | 0.00 | 0.00 | 0.00 | 70 | 1008.5 |
| 20260510075151 | 67 | 116 | 11.0 | 16.0 | 0.00 | 0.00 | 0.00 | 70 | 1008.4 |
| 20260510074652 | 67 | 87 | 8.0 | 14.0 | 0.00 | 0.00 | 0.00 | 69 | 1008.5 |
| 20260510074150 | 67 | 89 | 4.0 | 13.0 | 0.00 | 0.00 | 0.00 | 68 | 1008.3 |
| 20260510073649 | 67 | 116 | 5.0 | 10.0 | 0.00 | 0.00 | 0.00 | 66 | 1008.3 |
| 20260510073149 | 68 | 70 | 5.0 | 11.0 | 0.00 | 0.00 | 0.00 | 66 | 1008.2 |
| 20260510072650 | 68 | 53 | 5.0 | 11.0 | 0.00 | 0.00 | 0.00 | 65 | 1008.1 |
| 20260510072149 | 68 | 84 | 6.0 | 11.0 | 0.00 | 0.00 | 0.00 | 64 | 1008.1 |
| 20260510071648 | 69 | 91 | 8.0 | 17.0 | 0.00 | 0.00 | 0.00 | 64 | 1008.0 |
| 20260510071417 | 69 | 70 | 10.0 | 17.0 | 0.00 | 0.00 | 0.00 | 64 | 1007.9 |
| 20260510070645 | 69 | 41 | 11.0 | 16.0 | 0.00 | 0.00 | 0.00 | 63 | 1008.0 |
| 20260510070146 | 69 | 53 | 10.0 | 16.0 | 0.00 | 0.00 | 0.00 | 63 | 1008.0 |
| 20260510065643 | 69 | 41 | 9.0 | 15.0 | 0.00 | 0.00 | 0.00 | 62 | 1008.1 |
| 20260510065144 | 69 | 13 | 9.0 | 15.0 | 0.00 | 0.00 | 0.00 | 60 | 1008.1 |
| 20260510064644 | 70 | 28 | 10.0 | 17.0 | 0.00 | 0.00 | 0.00 | 59 | 1008.3 |
| 20260510064412 | 70 | 11 | 10.0 | 17.0 | 0.00 | 0.00 | 0.00 | 57 | 1008.4 |
| 20260510063913 | 71 | 25 | 10.0 | 18.0 | 0.00 | 0.00 | 0.00 | 55 | 1008.4 |
| 20260510063139 | 71 | 23 | 10.0 | 18.0 | 0.00 | 0.00 | 0.00 | 53 | 1008.4 |
| 20260510062640 | 72 | 32 | 9.0 | 15.0 | 0.00 | 0.00 | 0.00 | 48 | 1008.3 |
| 20260510062411 | 72 | 65 | 10.0 | 15.0 | 0.00 | 0.00 | 0.00 | 47 | 1008.3 |
| 20260510061640 | 73 | 24 | 10.0 | 18.0 | 0.00 | 0.00 | 0.00 | 44 | 1008.2 |
| 20260510061139 | 73 | 16 | 10.0 | 18.0 | 0.00 | 0.00 | 0.00 | 38 | 1008.1 |
| 20260510060637 | 74 | 43 | 9.0 | 16.0 | 0.00 | 0.00 | 0.00 | 29 | 1007.8 |
| 20260510060137 | 75 | 93 | 7.0 | 16.0 | 0.00 | 0.00 | 0.00 | 26 | 1007.6 |
| 20260510055636 | 75 | 58 | 5.0 | 12.0 | 0.00 | 0.00 | 0.00 | 21 | 1007.6 |
| 20260510055135 | 76 | 77 | 4.0 | 9.0 | 0.00 | 0.00 | 0.00 | 20 | 1007.4 |
| 20260510054633 | 76 | 61 | 5.0 | 9.0 | 0.00 | 0.00 | 0.00 | 20 | 1007.1 |
| 20260510054405 | 76 | 46 | 5.0 | 9.0 | 0.00 | 0.00 | 0.00 | 20 | 1007.1 |
| 20260510053633 | 76 | 53 | 5.0 | 9.0 | 0.00 | 0.00 | 0.00 | 20 | 1007.0 |
| 20260510053131 | 76 | 40 | 5.0 | 9.0 | 0.00 | 0.00 | 0.00 | 21 | 1007.0 |
| 20260510052632 | 76 | 29 | 4.0 | 9.0 | 0.00 | 0.00 | 0.00 | 20 | 1007.1 |
| 20260510052126 | 76 | 60 | 2.0 | 9.0 | 0.00 | 0.00 | 0.00 | 20 | 1007.2 |
| 20260510051626 | 76 | 46 | 2.0 | 4.0 | 0.00 | 0.00 | 0.00 | 20 | 1007.2 |
| 20260510051124 | 76 | 20 | 2.0 | 4.0 | 0.00 | 0.00 | 0.00 | 20 | 1007.3 |
| 20260510050843 | 76 | 15 | 1.0 | 4.0 | 0.00 | 0.00 | 0.00 | 20 | 1007.4 |
| 20260510050112 | 77 | 15 | 2.0 | 4.0 | 0.00 | 0.00 | 0.00 | 19 | 1007.4 |
| 20260510045605 | 77 | 3 | 3.0 | 5.0 | 0.00 | 0.00 | 0.00 | 19 | 1007.4 |
| 20260510045106 | 78 | 1 | 3.0 | 5.0 | 0.00 | 0.00 | 0.00 | 18 | 1007.5 |
| 20260510044559 | 79 | 45 | 3.0 | 5.0 | 0.00 | 0.00 | 0.00 | 18 | 1007.4 |
| 20260510044100 | 80 | 23 | 3.0 | 6.0 | 0.00 | 0.00 | 0.00 | 17 | 1007.4 |
| 20260510043559 | 80 | 16 | 5.0 | 9.0 | 0.00 | 0.00 | 0.00 | 17 | 1007.4 |
| 20260510043059 | 81 | 10 | 7.0 | 13.0 | 0.00 | 0.00 | 0.00 | 16 | 1007.4 |
| 20260510042558 | 82 | 13 | 8.0 | 13.0 | 0.00 | 0.00 | 0.00 | 16 | 1007.3 |
| 20260510042055 | 81 | 27 | 6.0 | 13.0 | 0.00 | 0.00 | 0.00 | 16 | 1007.2 |
| 20260510041827 | 82 | 12 | 4.0 | 11.0 | 0.00 | 0.00 | 0.00 | 16 | 1007.3 |
| 20260510041056 | 84 | 13 | 5.0 | 15.0 | 0.00 | 0.00 | 0.00 | 15 | 1007.4 |
| 20260510040553 | 83 | 339 | 10.0 | 19.0 | 0.00 | 0.00 | 0.00 | 16 | 1007.4 |
| 20260510040054 | 83 | 0 | 13.0 | 21.0 | 0.00 | 0.00 | 0.00 | 16 | 1007.4 |
| 20260510035553 | 83 | 341 | 16.0 | 28.0 | 0.00 | 0.00 | 0.00 | 16 | 1007.2 |
| 20260510035054 | 83 | 318 | 16.0 | 28.0 | 0.00 | 0.00 | 0.00 | 16 | 1007.1 |
| 20260510034554 | 82 | 354 | 15.0 | 21.0 | 0.00 | 0.00 | 0.00 | 16 | 1006.9 |
| 20260510034051 | 82 | 359 | 15.0 | 23.0 | 0.00 | 0.00 | 0.00 | 16 | 1007.3 |
| 20260510033551 | 82 | 335 | 11.0 | 23.0 | 0.00 | 0.00 | 0.00 | 17 | 1007.3 |
| 20260510033053 | 82 | 303 | 7.0 | 14.0 | 0.00 | 0.00 | 0.00 | 16 | 1007.1 |
| 20260510032551 | 82 | 327 | 6.0 | 12.0 | 0.00 | 0.00 | 0.00 | 15 | 1006.9 |
| 20260510032053 | 82 | 359 | 8.0 | 12.0 | 0.00 | 0.00 | 0.00 | 14 | 1006.6 |
| 20260510031823 | 80 | 17 | 6.0 | 10.0 | 0.00 | 0.00 | 0.00 | 14 | 1006.5 |
| 20260510031053 | 79 | 25 | 6.0 | 8.0 | 0.00 | 0.00 | 0.00 | 15 | 1006.6 |
| 20260510030551 | 79 | 25 | 7.0 | 12.0 | 0.00 | 0.00 | 0.00 | 15 | 1006.7 |
| 20260510030050 | 78 | 24 | 6.0 | 12.0 | 0.00 | 0.00 | 0.00 | 16 | 1006.6 |
| 20260510025550 | 78 | 1 | 3.0 | 8.0 | 0.00 | 0.00 | 0.00 | 16 | 1006.6 |
| 20260510025321 | 80 | 336 | 1.0 | 5.0 | 0.00 | 0.00 | 0.00 | 16 | 1006.4 |
| 20260510024549 | 80 | 236 | 1.0 | 4.0 | 0.00 | 0.00 | 0.00 | 15 | 1006.1 |
| 20260510024041 | 80 | 142 | 0.0 | 3.0 | 0.00 | 0.00 | 0.00 | 14 | 1005.9 |
| 20260510023538 | 80 | 115 | 0.0 | 0.0 | 0.00 | 0.00 | 0.00 | 14 | 1005.7 |
| 20260510023305 | 80 | 115 | 0.0 | 1.0 | 0.00 | 0.00 | 0.00 | 14 | 1005.7 |
| 20260510022524 | 80 | 99 | 1.0 | 3.0 | 0.00 | 0.00 | 0.00 | 14 | 1005.6 |
| 20260510022013 | 81 | 168 | 2.0 | 4.0 | 0.00 | 0.00 | 0.00 | 14 | 1005.6 |
| 20260510021507 | 81 | 206 | 4.0 | 8.0 | 0.00 | 0.00 | 0.00 | 14 | 1005.6 |
| 20260510021243 | 83 | 184 | 6.0 | 10.0 | 0.00 | 0.00 | 0.00 | 14 | 1005.4 |
| 20260510021007 | 82 | 200 | 6.0 | 9.0 | 0.00 | 0.00 | 0.00 | 13 | 1005.5 |
| 20260510020003 | 83 | 207 | 6.0 | 10.0 | 0.00 | 0.00 | 0.00 | 17 | 1005.4 |
| 20260510015504 | 83 | 223 | 5.0 | 10.0 | 0.00 | 0.00 | 0.00 | 14 | 1005.3 |
| 20260510015236 | 84 | 208 | 2.0 | 6.0 | 0.00 | 0.00 | 0.00 | 17 | 1005.1 |
| 20260510014453 | 85 | 210 | 1.0 | 2.0 | 0.00 | 0.00 | 0.00 | 17 | 1005.1 |
| 20260510013953 | 85 | 223 | 0.0 | 2.0 | 0.00 | 0.00 | 0.00 | 14 | 1005.0 |
| 20260510013451 | 85 | 348 | 0.0 | 0.0 | 0.00 | 0.00 | 0.00 | 12 | 1004.9 |
| 20260510012951 | 85 | 348 | 0.0 | 0.0 | 0.00 | 0.00 | 0.00 | 11 | 1004.9 |
| 20260510012715 | 85 | 348 | 0.0 | 0.0 | 0.00 | 0.00 | 0.00 | 11 | 1004.9 |
| 20260510011928 | 85 | 348 | 0.0 | 0.0 | 0.00 | 0.00 | 0.00 | 11 | 1004.8 |
| 20260510011421 | 85 | 348 | 0.0 | 0.0 | 0.00 | 0.00 | 0.00 | 11 | 1004.7 |
| 20260510010906 | 86 | 348 | 1.0 | 3.0 | 0.00 | 0.00 | 0.00 | 10 | 1004.7 |
| 20260510010348 | 86 | 348 | 3.0 | 6.0 | 0.00 | 0.00 | 0.00 | 10 | 1004.7 |
| 20260510010118 | 87 | 0 | 3.0 | 6.0 | 0.00 | 0.00 | 0.00 | 10 | 1004.6 |
| 20260510005349 | 87 | 344 | 4.0 | 6.0 | 0.00 | 0.00 | 0.00 | 10 | 1004.5 |
| 20260510004847 | 88 | 346 | 5.0 | 8.0 | 0.00 | 0.00 | 0.00 | 10 | 1004.6 |
| 20260510004348 | 89 | 336 | 6.0 | 10.0 | 0.00 | 0.00 | 0.00 | 10 | 1004.6 |
| 20260510003848 | 89 | 333 | 6.0 | 10.0 | 0.00 | 0.00 | 0.00 | 9 | 1004.5 |
| 20260510003348 | 89 | 344 | 5.0 | 8.0 | 0.00 | 0.00 | 0.00 | 9 | 1004.5 |
| 20260510003116 | 89 | 352 | 4.0 | 8.0 | 0.00 | 0.00 | 0.00 | 9 | 1004.6 |
| 20260510002346 | 89 | 353 | 6.0 | 10.0 | 0.00 | 0.00 | 0.00 | 9 | 1004.5 |
| 20260510001844 | 89 | 1 | 7.0 | 10.0 | 0.00 | 0.00 | 0.00 | 9 | 1004.6 |
| 20260510001341 | 89 | 330 | 7.0 | 13.0 | 0.00 | 0.00 | 0.00 | 9 | 1004.6 |
| 20260510000842 | 89 | 329 | 7.0 | 14.0 | 0.00 | 0.00 | 0.00 | 9 | 1004.6 |
| 20260510000341 | 89 | 335 | 8.0 | 14.0 | 0.00 | 0.00 | 0.00 | 9 | 1004.6 |
| 20260509235833 | 89 | 344 | 9.0 | 14.0 | 0.00 | 0.00 | 0.00 | 9 | 1004.6 |
| 20260509235333 | 89 | 326 | 8.0 | 14.0 | 0.00 | 0.00 | 0.00 | 9 | 1004.6 |
| 20260509234831 | 89 | 345 | 6.0 | 11.0 | 0.00 | 0.00 | 0.00 | 8 | 1004.6 |
| 20260509234602 | 89 | 311 | 5.0 | 11.0 | 0.00 | 0.00 | 0.00 | 8 | 1004.7 |
| 20260509233830 | 89 | 347 | 8.0 | 16.0 | 0.00 | 0.00 | 0.00 | 8 | 1004.7 |
| 20260509233328 | 89 | 352 | 9.0 | 16.0 | 0.00 | 0.00 | 0.00 | 8 | 1004.8 |
| 20260509232827 | 90 | 307 | 9.0 | 16.0 | 0.00 | 0.00 | 0.00 | 9 | 1004.8 |
| 20260509232325 | 91 | 292 | 7.0 | 16.0 | 0.00 | 0.00 | 0.00 | 8 | 1004.9 |
| 20260509231825 | 90 | 300 | 6.0 | 10.0 | 0.00 | 0.00 | 0.00 | 8 | 1004.9 |
| 20260509231551 | 89 | 359 | 9.0 | 20.0 | 0.00 | 0.00 | 0.00 | 8 | 1005.0 |
| 20260509230819 | 90 | 342 | 9.0 | 20.0 | 0.00 | 0.00 | 0.00 | 8 | 1005.0 |
| 20260509230320 | 90 | 288 | 8.0 | 14.0 | 0.00 | 0.00 | 0.00 | 8 | 1004.9 |
| 20260509225819 | 90 | 346 | 7.0 | 14.0 | 0.00 | 0.00 | 0.00 | 8 | 1005.0 |
| 20260509225313 | 91 | 290 | 8.0 | 16.0 | 0.00 | 0.00 | 0.00 | 8 | 1005.0 |
| 20260509225043 | 91 | 315 | 10.0 | 18.0 | 0.00 | 0.00 | 0.00 | 8 | 1005.1 |
| 20260509224312 | 90 | 252 | 9.0 | 18.0 | 0.00 | 0.00 | 0.00 | 8 | 1005.2 |
| 20260509223811 | 90 | 335 | 9.0 | 16.0 | 0.00 | 0.00 | 0.00 | 9 | 1005.2 |
| 20260509223308 | 90 | 354 | 8.0 | 16.0 | 0.00 | 0.00 | 0.00 | 8 | 1005.3 |
| 20260509223041 | 89 | 290 | 6.0 | 11.0 | 0.00 | 0.00 | 0.00 | 8 | 1005.4 |
| 20260509222309 | 90 | 283 | 8.0 | 18.0 | 0.00 | 0.00 | 0.00 | 9 | 1005.5 |
| 20260509222040 | 89 | 319 | 10.0 | 18.0 | 0.00 | 0.00 | 0.00 | 9 | 1005.5 |
| 20260509221309 | 91 | 352 | 8.0 | 16.0 | 0.00 | 0.00 | 0.00 | 9 | 1005.6 |
| 20260509220805 | 90 | 354 | 9.0 | 19.0 | 0.00 | 0.00 | 0.00 | 9 | 1005.8 |
| 20260509220305 | 90 | 280 | 10.0 | 19.0 | 0.00 | 0.00 | 0.00 | 9 | 1005.8 |
| 20260509215805 | 90 | 274 | 10.0 | 19.0 | 0.00 | 0.00 | 0.00 | 9 | 1005.9 |
| 20260509215536 | 91 | 300 | 10.0 | 19.0 | 0.00 | 0.00 | 0.00 | 9 | 1005.8 |
| 20260509214805 | 91 | 278 | 11.0 | 20.0 | 0.00 | 0.00 | 0.00 | 8 | 1006.0 |
| 20260509214534 | 91 | 276 | 9.0 | 20.0 | 0.00 | 0.00 | 0.00 | 8 | 1005.9 |
| 20260509213801 | 90 | 290 | 8.0 | 17.0 | 0.00 | 0.00 | 0.00 | 9 | 1006.1 |
| 20260509213301 | 90 | 0 | 10.0 | 18.0 | 0.00 | 0.00 | 0.00 | 8 | 1006.0 |
| 20260509212802 | 90 | 276 | 11.0 | 24.0 | 0.00 | 0.00 | 0.00 | 8 | 1006.1 |
| 20260509212532 | 90 | 335 | 11.0 | 24.0 | 0.00 | 0.00 | 0.00 | 8 | 1006.2 |
| 20260509211801 | 91 | 345 | 9.0 | 20.0 | 0.00 | 0.00 | 0.00 | 8 | 1006.2 |
| 20260509211258 | 90 | 288 | 11.0 | 19.0 | 0.00 | 0.00 | 0.00 | 6 | 1006.3 |
| 20260509211028 | 89 | 330 | 11.0 | 22.0 | 0.00 | 0.00 | 0.00 | 9 | 1006.3 |
| 20260509210257 | 90 | 314 | 10.0 | 22.0 | 0.00 | 0.00 | 0.00 | 10 | 1006.3 |
| 20260509210028 | 90 | 359 | 11.0 | 20.0 | 0.00 | 0.00 | 0.00 | 10 | 1006.4 |
| 20260509205254 | 90 | 254 | 11.0 | 18.0 | 0.00 | 0.00 | 0.00 | 9 | 1006.5 |
| 20260509204756 | 90 | 283 | 10.0 | 19.0 | 0.00 | 0.00 | 0.00 | 10 | 1006.5 |
| 20260509204253 | 90 | 332 | 11.0 | 20.0 | 0.00 | 0.00 | 0.00 | 10 | 1006.5 |
| 20260509204024 | 89 | 342 | 13.0 | 20.0 | 0.00 | 0.00 | 0.00 | 9 | 1006.6 |
| 20260509203254 | 89 | 324 | 13.0 | 20.0 | 0.00 | 0.00 | 0.00 | 11 | 1006.7 |
| 20260509202753 | 89 | 349 | 12.0 | 20.0 | 0.00 | 0.00 | 0.00 | 12 | 1006.7 |
| 20260509202522 | 89 | 314 | 12.0 | 23.0 | 0.00 | 0.00 | 0.00 | 12 | 1006.7 |
| 20260509201751 | 89 | 345 | 12.0 | 23.0 | 0.00 | 0.00 | 0.00 | 11 | 1006.7 |
| 20260509201520 | 89 | 276 | 12.0 | 25.0 | 0.00 | 0.00 | 0.00 | 13 | 1006.8 |
| 20260509200749 | 89 | 351 | 12.0 | 25.0 | 0.00 | 0.00 | 0.00 | 10 | 1006.8 |
| 20260509200246 | 89 | 303 | 12.0 | 22.0 | 0.00 | 0.00 | 0.00 | 12 | 1006.8 |
| 20260509195747 | 89 | 311 | 11.0 | 22.0 | 0.00 | 0.00 | 0.00 | 10 | 1006.8 |
| 20260509195247 | 90 | 299 | 10.0 | 20.0 | 0.00 | 0.00 | 0.00 | 11 | 1006.9 |
| 20260509194746 | 90 | 271 | 11.0 | 21.0 | 0.00 | 0.00 | 0.00 | 13 | 1006.9 |
| 20260509194251 | 89 | 247 | 9.0 | 17.0 | 0.00 | 0.00 | 0.00 | 12 | 1006.9 |
| 20260509194247 | 89 | 267 | 10.0 | 21.0 | 0.00 | 0.00 | 0.00 | 12 | 1006.8 |
| 20260509193244 | 88 | 276 | 8.0 | 15.0 | 0.00 | 0.00 | 0.00 | 14 | 1007.0 |
| 20260509192743 | 88 | 307 | 10.0 | 16.0 | 0.00 | 0.00 | 0.00 | 15 | 1007.3 |
| 20260509192243 | 88 | 259 | 9.0 | 17.0 | 0.00 | 0.00 | 0.00 | 15 | 1007.3 |
| 20260509191732 | 88 | 301 | 10.0 | 17.0 | 0.00 | 0.00 | 0.00 | 16 | 1007.4 |
| 20260509191233 | 87 | 287 | 10.0 | 18.0 | 0.00 | 0.00 | 0.00 | 16 | 1007.4 |
| 20260509190732 | 88 | 263 | 10.0 | 24.0 | 0.00 | 0.00 | 0.00 | 16 | 1007.5 |
| 20260509190232 | 87 | 292 | 10.0 | 24.0 | 0.00 | 0.00 | 0.00 | 15 | 1007.6 |
| 20260509185730 | 88 | 220 | 9.0 | 19.0 | 0.00 | 0.00 | 0.00 | 15 | 1007.6 |
| 20260509185229 | 87 | 252 | 10.0 | 16.0 | 0.00 | 0.00 | 0.00 | 15 | 1007.9 |
| 20260509184729 | 87 | 261 | 9.0 | 20.0 | 0.00 | 0.00 | 0.00 | 16 | 1007.9 |
| 20260509184228 | 87 | 274 | 9.0 | 20.0 | 0.00 | 0.00 | 0.00 | 16 | 1007.9 |
| 20260509183730 | 87 | 310 | 10.0 | 18.0 | 0.00 | 0.00 | 0.00 | 17 | 1008.0 |
| 20260509183228 | 87 | 265 | 9.0 | 18.0 | 0.00 | 0.00 | 0.00 | 16 | 1008.1 |
| 20260509182727 | 87 | 257 | 8.0 | 17.0 | 0.00 | 0.00 | 0.00 | 17 | 1008.1 |
| 20260509182458 | 86 | 240 | 8.0 | 17.0 | 0.00 | 0.00 | 0.00 | 17 | 1008.2 |
| 20260509181726 | 87 | 291 | 8.0 | 16.0 | 0.00 | 0.00 | 0.00 | 17 | 1008.4 |
| 20260509181228 | 86 | 250 | 7.0 | 16.0 | 0.00 | 0.00 | 0.00 | 18 | 1008.5 |
| 20260509180722 | 85 | 307 | 8.0 | 14.0 | 0.00 | 0.00 | 0.00 | 20 | 1008.6 |
| 20260509180221 | 84 | 252 | 9.0 | 18.0 | 0.00 | 0.00 | 0.00 | 20 | 1008.9 |
| 20260509180217 | 85 | 0 | 8.0 | 14.0 | 0.00 | 0.00 | 0.00 | 20 | 1008.8 |
| 20260509175216 | 84 | 200 | 11.0 | 20.0 | 0.00 | 0.00 | 0.00 | 20 | 1009.1 |
| 20260509174712 | 83 | 206 | 11.0 | 22.0 | 0.00 | 0.00 | 0.00 | 21 | 1009.2 |
| 20260509174213 | 83 | 236 | 9.0 | 22.0 | 0.00 | 0.00 | 0.00 | 21 | 1009.3 |
| 20260509173712 | 83 | 206 | 9.0 | 17.0 | 0.00 | 0.00 | 0.00 | 23 | 1009.3 |
| 20260509173443 | 82 | 235 | 11.0 | 20.0 | 0.00 | 0.00 | 0.00 | 24 | 1009.5 |
| 20260509172710 | 82 | 226 | 10.0 | 20.0 | 0.00 | 0.00 | 0.00 | 25 | 1009.5 |
| 20260509172211 | 82 | 219 | 7.0 | 17.0 | 0.00 | 0.00 | 0.00 | 25 | 1009.6 |
| 20260509171942 | 81 | 226 | 7.0 | 16.0 | 0.00 | 0.00 | 0.00 | 28 | 1009.8 |
| 20260509171215 | 80 | 252 | 7.0 | 21.0 | 0.00 | 0.00 | 0.00 | 29 | 1009.8 |
| 20260509171211 | 81 | 248 | 8.0 | 17.0 | 0.00 | 0.00 | 0.00 | 28 | 1009.9 |
| 20260509170438 | 80 | 205 | 8.0 | 21.0 | 0.00 | 0.00 | 0.00 | 27 | 1009.9 |
| 20260509165704 | 80 | 207 | 9.0 | 19.0 | 0.00 | 0.00 | 0.00 | 28 | 1010.0 |
| 20260509165202 | 79 | 243 | 9.0 | 16.0 | 0.00 | 0.00 | 0.00 | 29 | 1010.1 |
| 20260509164933 | 79 | 237 | 9.0 | 16.0 | 0.00 | 0.00 | 0.00 | 30 | 1010.2 |
| 20260509164203 | 79 | 243 | 9.0 | 16.0 | 0.00 | 0.00 | 0.00 | 29 | 1010.2 |
| 20260509163702 | 78 | 232 | 9.0 | 16.0 | 0.00 | 0.00 | 0.00 | 32 | 1010.1 |
| 20260509163200 | 78 | 194 | 9.0 | 19.0 | 0.00 | 0.00 | 0.00 | 31 | 1010.4 |
| 20260509162700 | 78 | 205 | 11.0 | 19.0 | 0.00 | 0.00 | 0.00 | 32 | 1010.4 |
| 20260509162159 | 78 | 231 | 11.0 | 19.0 | 0.00 | 0.00 | 0.00 | 33 | 1010.4 |
| 20260509161656 | 77 | 180 | 11.0 | 20.0 | 0.00 | 0.00 | 0.00 | 33 | 1010.4 |
| 20260509161157 | 77 | 164 | 11.0 | 20.0 | 0.00 | 0.00 | 0.00 | 34 | 1010.5 |
| 20260509160658 | 77 | 214 | 12.0 | 20.0 | 0.00 | 0.00 | 0.00 | 35 | 1010.5 |
| 20260509160156 | 76 | 201 | 13.0 | 20.0 | 0.00 | 0.00 | 0.00 | 35 | 1010.5 |
| 20260509155656 | 76 | 148 | 13.0 | 19.0 | 0.00 | 0.00 | 0.00 | 36 | 1010.5 |
| 20260509155157 | 76 | 212 | 13.0 | 19.0 | 0.00 | 0.00 | 0.00 | 35 | 1010.5 |
| 20260509154657 | 76 | 213 | 12.0 | 19.0 | 0.00 | 0.00 | 0.00 | 34 | 1010.6 |
| 20260509154425 | 76 | 181 | 11.0 | 18.0 | 0.00 | 0.00 | 0.00 | 35 | 1010.7 |
| 20260509153654 | 76 | 202 | 10.0 | 18.0 | 0.00 | 0.00 | 0.00 | 36 | 1010.7 |
| 20260509153152 | 75 | 171 | 10.0 | 18.0 | 0.00 | 0.00 | 0.00 | 38 | 1010.8 |
| 20260509152651 | 75 | 179 | 11.0 | 17.0 | 0.00 | 0.00 | 0.00 | 39 | 1010.9 |
| 20260509152150 | 74 | 131 | 10.0 | 17.0 | 0.00 | 0.00 | 0.00 | 40 | 1010.9 |
| 20260509151650 | 73 | 216 | 8.0 | 15.0 | 0.00 | 0.00 | 0.00 | 42 | 1011.0 |
| 20260509151421 | 73 | 187 | 8.0 | 14.0 | 0.00 | 0.00 | 0.00 | 46 | 1011.1 |
| 20260509150648 | 72 | 151 | 7.0 | 14.0 | 0.00 | 0.00 | 0.00 | 48 | 1011.1 |
| 20260509150148 | 71 | 176 | 7.0 | 10.0 | 0.00 | 0.00 | 0.00 | 50 | 1011.2 |
| 20260509145646 | 70 | 172 | 7.0 | 11.0 | 0.00 | 0.00 | 0.00 | 51 | 1011.3 |
| 20260509145147 | 69 | 190 | 6.0 | 11.0 | 0.00 | 0.00 | 0.00 | 52 | 1011.4 |
| 20260509144646 | 68 | 184 | 7.0 | 12.0 | 0.00 | 0.00 | 0.00 | 53 | 1011.5 |
| 20260509144146 | 67 | 178 | 7.0 | 12.0 | 0.00 | 0.00 | 0.00 | 52 | 1011.6 |
| 20260509143646 | 67 | 204 | 8.0 | 12.0 | 0.00 | 0.00 | 0.00 | 52 | 1011.7 |
| 20260509143146 | 67 | 205 | 7.0 | 13.0 | 0.00 | 0.00 | 0.00 | 53 | 1011.7 |
| 20260509142646 | 66 | 160 | 4.0 | 13.0 | 0.00 | 0.00 | 0.00 | 54 | 1011.8 |
| 20260509142144 | 65 | 129 | 1.0 | 7.0 | 0.00 | 0.00 | 0.00 | 50 | 1011.8 |
| 20260509141909 | 64 | 213 | 1.0 | 5.0 | 0.00 | 0.00 | 0.00 | 48 | 1011.9 |
| 20260509141138 | 64 | 177 | 1.0 | 4.0 | 0.00 | 0.00 | 0.00 | 47 | 1012.0 |
| 20260509140630 | 64 | 179 | 1.0 | 4.0 | 0.00 | 0.00 | 0.00 | 46 | 1012.0 |
| 20260509140402 | 64 | 183 | 0.0 | 1.0 | 0.00 | 0.00 | 0.00 | 46 | 1012.1 |
| 20260509135628 | 63 | 146 | 0.0 | 0.0 | 0.00 | 0.00 | 0.00 | 46 | 1012.1 |
| 20260509135113 | 63 | 146 | 0.0 | 0.0 | 0.00 | 0.00 | 0.00 | 44 | 1012.1 |
| 20260509134543 | 62 | 146 | 0.0 | 0.0 | 0.00 | 0.00 | 0.00 | 44 | 1012.1 |
| 20260509134042 | 61 | 179 | 0.0 | 1.0 | 0.00 | 0.00 | 0.00 | 45 | 1012.1 |
| 20260509133518 | 61 | 181 | 0.0 | 1.0 | 0.00 | 0.00 | 0.00 | 45 | 1012.1 |
| 20260509133251 | 60 | 1 | 0.0 | 0.0 | 0.00 | 0.00 | 0.00 | 47 | 1012.0 |
| 20260509132452 | 59 | 1 | 0.0 | 0.0 | 0.00 | 0.00 | 0.00 | 48 | 1011.9 |
| 20260509131953 | 58 | 1 | 0.0 | 0.0 | 0.00 | 0.00 | 0.00 | 49 | 1012.0 |
| 20260509131440 | 56 | 1 | 0.0 | 0.0 | 0.00 | 0.00 | 0.00 | 49 | 1011.9 |
| 20260509130940 | 56 | 1 | 0.0 | 0.0 | 0.00 | 0.00 | 0.00 | 51 | 1011.9 |
| 20260509130713 | 55 | 1 | 0.0 | 0.0 | 0.00 | 0.00 | 0.00 | 52 | 1011.8 |
| 20260509125934 | 54 | 1 | 0.0 | 0.0 | 0.00 | 0.00 | 0.00 | 52 | 1011.9 |
| 20260509125436 | 53 | 1 | 0.0 | 0.0 | 0.00 | 0.00 | 0.00 | 53 | 1011.9 |
| 20260509124916 | 52 | 1 | 0.0 | 0.0 | 0.00 | 0.00 | 0.00 | 54 | 1011.9 |
| 20260509124417 | 51 | 1 | 0.0 | 0.0 | 0.00 | 0.00 | 0.00 | 55 | 1011.8 |
| 20260509123858 | 51 | 1 | 0.0 | 0.0 | 0.00 | 0.00 | 0.00 | 56 | 1011.8 |
| 20260509123353 | 51 | 1 | 0.0 | 0.0 | 0.00 | 0.00 | 0.00 | 56 | 1011.7 |
| 20260509122852 | 50 | 1 | 0.0 | 0.0 | 0.00 | 0.00 | 0.00 | 57 | 1011.7 |
| 20260509122352 | 49 | 1 | 0.0 | 0.0 | 0.00 | 0.00 | 0.00 | 58 | 1011.8 |
| 20260509121848 | 49 | 1 | 0.0 | 0.0 | 0.00 | 0.00 | 0.00 | 57 | 1011.6 |
| 20260509121346 | 49 | 1 | 0.0 | 0.0 | 0.00 | 0.00 | 0.00 | 57 | 1011.7 |
| 20260509120845 | 49 | 1 | 0.0 | 0.0 | 0.00 | 0.00 | 0.00 | 57 | 1011.7 |
| 20260509120323 | 49 | 1 | 0.0 | 0.0 | 0.00 | 0.00 | 0.00 | 57 | 1011.7 |
| 20260509115758 | 49 | 1 | 0.0 | 1.0 | 0.00 | 0.00 | 0.00 | 57 | 1011.6 |
| 20260509115258 | 49 | 1 | 0.0 | 1.0 | 0.00 | 0.00 | 0.00 | 57 | 1011.6 |
| 20260509114756 | 49 | 4 | 0.0 | 1.0 | 0.00 | 0.00 | 0.00 | 58 | 1011.6 |
| 20260509114243 | 48 | 359 | 0.0 | 1.0 | 0.00 | 0.00 | 0.00 | 59 | 1011.6 |
| 20260509113742 | 48 | 345 | 0.0 | 1.0 | 0.00 | 0.00 | 0.00 | 59 | 1011.7 |
| 20260509113236 | 48 | 345 | 0.0 | 2.0 | 0.00 | 0.00 | 0.00 | 58 | 1011.7 |
| 20260509112732 | 48 | 303 | 0.0 | 2.0 | 0.00 | 0.00 | 0.00 | 58 | 1011.8 |
| 20260509112211 | 48 | 308 | 1.0 | 3.0 | 0.00 | 0.00 | 0.00 | 58 | 1011.7 |
| 20260509111936 | 48 | 297 | 2.0 | 4.0 | 0.00 | 0.00 | 0.00 | 57 | 1011.7 |
| 20260509111156 | 48 | 316 | 1.0 | 4.0 | 0.00 | 0.00 | 0.00 | 57 | 1011.7 |
| 20260509110654 | 49 | 299 | 0.0 | 2.0 | 0.00 | 0.00 | 0.00 | 56 | 1011.6 |
| 20260509110426 | 49 | 321 | 0.0 | 3.0 | 0.00 | 0.00 | 0.00 | 56 | 1011.6 |
| 20260509105925 | 49 | 307 | 0.0 | 3.0 | 0.00 | 0.00 | 0.00 | 54 | 1011.7 |
| 20260509105152 | 49 | 288 | 0.0 | 0.0 | 0.00 | 0.00 | 0.00 | 52 | 1011.7 |
| 20260509104649 | 50 | 288 | 0.0 | 1.0 | 0.00 | 0.00 | 0.00 | 52 | 1011.7 |
| 20260509104139 | 50 | 288 | 0.0 | 1.0 | 0.00 | 0.00 | 0.00 | 51 | 1011.7 |
| 20260509103853 | 51 | 300 | 0.0 | 1.0 | 0.00 | 0.00 | 0.00 | 51 | 1011.9 |
| 20260509103124 | 52 | 44 | 0.0 | 0.0 | 0.00 | 0.00 | 0.00 | 51 | 1011.8 |
| 20260509102556 | 52 | 44 | 0.0 | 0.0 | 0.00 | 0.00 | 0.00 | 50 | 1011.8 |
| 20260509102049 | 52 | 44 | 0.0 | 0.0 | 0.00 | 0.00 | 0.00 | 49 | 1011.8 |
| 20260509101517 | 53 | 44 | 0.0 | 0.0 | 0.00 | 0.00 | 0.00 | 49 | 1011.9 |
| 20260509101236 | 54 | 44 | 0.0 | 0.0 | 0.00 | 0.00 | 0.00 | 48 | 1011.9 |
| 20260509100458 | 55 | 44 | 0.0 | 0.0 | 0.00 | 0.00 | 0.00 | 46 | 1012.0 |
| 20260509095955 | 56 | 105 | 0.0 | 3.0 | 0.00 | 0.00 | 0.00 | 47 | 1012.0 |
| 20260509095442 | 56 | 105 | 0.0 | 3.0 | 0.00 | 0.00 | 0.00 | 48 | 1012.0 |
| 20260509094936 | 56 | 197 | 0.0 | 1.0 | 0.00 | 0.00 | 0.00 | 48 | 1011.9 |
| 20260509094657 | 56 | 198 | 0.0 | 1.0 | 0.00 | 0.00 | 0.00 | 48 | 1012.0 |
| 20260509093849 | 56 | 198 | 0.0 | 2.0 | 0.00 | 0.00 | 0.00 | 48 | 1011.9 |
| 20260509093347 | 56 | 198 | 0.0 | 3.0 | 0.00 | 0.00 | 0.00 | 47 | 1011.9 |
| 20260509092834 | 56 | 176 | 1.0 | 3.0 | 0.00 | 0.00 | 0.00 | 47 | 1012.0 |